Hourly Data Report for May 28, 2006

TORONTO CITY
ONTARIO

43°40'00.000" N
79°24'00.000" W
112.50 m
6158355
71508
XTO

Download Data

Hourly Data (May 2006)
Hourly Data Report for May 28, 2006
TIME
LST
Temp Definition
°C
Dew Point Definition
°C
Rel Hum Definition
%
Precip. Amount Definition
mm

Wind Dir Definition
10's deg

Wind Spd Definition
km/h
Visibility Definition
km
Stn Press Definition
kPa
Hmdx Definition


Wind Chill Definition


Weather Definition


00:00 17.2 13.9 81   LegendMM LegendMM   100.37     LegendNANA
01:00 17.0 14.2 84   LegendMM LegendMM   100.38     LegendNANA
02:00 16.8 14.5 86   LegendMM LegendMM   100.40     LegendNANA
03:00 16.1 14.2 88   LegendMM LegendMM   100.38     LegendNANA
04:00 15.0 13.6 91   LegendMM LegendMM   100.46     LegendNANA
05:00 14.7 13.8 94   LegendMM LegendMM   100.52     LegendNANA
06:00 15.7 14.7 94   LegendMM LegendMM   100.60     LegendNANA
07:00 16.9 14.9 88   LegendMM LegendMM   100.63     LegendNANA
08:00 18.0 15.7 86   LegendMM LegendMM   100.68     LegendNANA
09:00 17.1 15.5 90   LegendMM LegendMM   100.70     LegendNANA
10:00 19.4 16.0 81   LegendMM LegendMM   100.71     LegendNANA
11:00 21.9 16.2 70   LegendMM LegendMM   100.67 27   LegendNANA
12:00 22.3 16.6 70   LegendMM LegendMM   100.64 27   LegendNANA
13:00 22.4 17.4 73   LegendMM LegendMM   100.69 28   LegendNANA
14:00 24.4 18.4 69   LegendMM LegendMM   100.64 31   LegendNANA
15:00 21.7 16.6 73   LegendMM LegendMM   100.42 27   LegendNANA
16:00 22.3 17.1 72   LegendMM LegendMM   100.42 28   LegendNANA
17:00 22.4 16.8 71   LegendMM LegendMM   100.38 28   LegendNANA
18:00 22.8 16.9 69   LegendMM LegendMM   100.37 28   LegendNANA
19:00 21.2 15.6 70   LegendMM LegendMM   100.38 26   LegendNANA
20:00 20.3 15.2 73   LegendMM LegendMM   100.39     LegendNANA
21:00 19.7 15.0 74   LegendMM LegendMM   100.42     LegendNANA
22:00 19.0 15.3 79   LegendMM LegendMM   100.41     LegendNANA
23:00 19.2 15.6 80   LegendMM LegendMM   100.39     LegendNANA

Notes on Data Quality.

Legend

  • E = Estimated
  • M = Missing
  • NA = Not Available*
  • [empty] = Indicates an unobserved value
Date modified: